AO-07 1 07530U 74089B 21210.55680319 -.00000039 00000-0 42815-4 0 9993 2 07530 101.8565 185.0198 0011944 303.0450 169.7532 12.53649574137009 UO-11 1 14781U 84021B 21210.55589863 .00000125 00000-0 21395-4 0 9993 2 14781 97.5936 208.3260 0007194 310.4908 49.5679 14.83307161992171 LO-19 1 20442U 90005G 21210.38151748 .00000011 00000-0 20592-4 0 9993 2 20442 98.7437 166.2361 0012574 42.0651 318.1496 14.32992622646833 HUBBLE 1 20580U 90037B 21210.17364920 .00000628 00000-0 27002-4 0 9993 2 20580 28.4693 149.0185 0002857 149.3781 351.5711 15.09691895517326 MET-2/21 1 22782U 93055A 21210.53141374 -.00000014 00000-0 -26483-4 0 9991 2 22782 82.5480 270.5134 0022637 170.2742 302.4835 13.83836833409346 AO-27 1 22825U 93061C 21210.49666778 -.00000012 00000-0 13303-4 0 9995 2 22825 98.9162 229.1411 0007333 272.9189 87.1153 14.30120312451990 IO-26 1 22826U 93061D 21210.52706014 -.00000004 00000-0 16534-4 0 9998 2 22826 98.9104 229.0769 0007873 258.2492 101.7807 14.30460080452242 FO-29 1 24278U 96046B 21210.44984027 -.00000036 00000-0 -16324-5 0 9994 2 24278 98.5649 272.8542 0350934 40.9961 321.7001 13.53105284231922 NOAA-15 1 25338U 98030A 21210.74546868 .00000071 00000-0 48096-4 0 9994 2 25338 98.6796 238.8866 0010962 152.2784 207.8982 14.26048696207276 GO-32 1 25397U 98043D 21210.78390412 -.00000003 00000-0 18118-4 0 9997 2 25397 98.7725 156.2250 0001115 17.2326 342.8890 14.23712354197739 ISS 1 25544U 98067A 21210.74202796 .00002234 00000-0 48879-4 0 9994 2 25544 51.6435 132.2868 0001402 211.5955 188.8008 15.48872655295191 NO-44 1 26931U 01043C 21210.33377179 -.00000020 00000-0 24273-4 0 9990 2 26931 67.0504 172.3525 0005947 262.6582 97.3844 14.30626425 35181 SO-50 1 27607U 02058C 21210.45044756 .00000049 00000-0 27527-4 0 9998 2 27607 64.5536 209.9198 0045741 7.4248 352.7521 14.75769607 701 CO-55 1 27844U 03031E 21210.54408745 .00000048 00000-0 41153-4 0 9995 2 27844 98.6796 218.1168 0009085 323.2050 36.8504 14.22322537937967 CO-57 1 27848U 03031J 21210.54981485 .00000036 00000-0 36086-4 0 9992 2 27848 98.6852 218.6845 0009241 337.4980 22.5792 14.21898193937825 RS-22 1 27939U 03042A 21210.80683501 .00000141 00000-0 33915-4 0 9997 2 27939 98.1482 347.6181 0013865 142.5412 217.6762 14.67004899953732 NOAA-18 1 28654U 05018A 21210.73140077 .00000081 00000-0 68073-4 0 9991 2 28654 98.9916 275.7592 0014767 159.3046 200.8727 14.12625775834505 CO-58 1 28895U 05043F 21210.32460552 .00000171 00000-0 41605-4 0 9996 2 28895 98.0643 342.6607 0018093 79.9627 280.3617 14.63937718840135 Falconsat-3 1 30776U 07006E 21210.34606900 .00006601 00000-0 15603-3 0 9991 2 30776 35.4330 190.9116 0003556 276.3084 83.7239 15.41178792799573 CO-65 1 32785U 08021C 21210.07108316 .00000337 00000-0 41604-4 0 9990 2 32785 97.6135 187.3053 0011795 220.2760 139.7585 14.88760067718367 AAUSAT2 1 32788U 08021F 21210.50448952 .00000592 00000-0 58067-4 0 9998 2 32788 97.5058 203.4026 0012911 124.3004 235.9442 14.95661612720244 DO-64 1 32789U 08021G 21210.51994698 .00002677 00000-0 17210-3 0 9993 2 32789 97.3732 244.2637 0011583 6.6721 353.4660 15.09183849723175 CO-66 1 32791U 08021J 21209.95861916 .00000609 00000-0 66180-4 0 9992 2 32791 97.5731 193.0674 0012958 181.1309 178.9883 14.91460059718968 RS-30 1 32953U 08025A 21210.72292774 .00000021 00000-0 80971-4 0 9995 2 32953 82.5030 24.6373 0018709 244.2027 115.7123 12.43102991598232 PRISM 1 33493U 09002B 21210.41840331 .00000416 00000-0 40958-4 0 9994 2 33493 98.1909 174.9927 0015168 144.0351 216.1894 14.97748203680604 NOAA-19 1 33591U 09005A 21210.69861285 .00000077 00000-0 66703-4 0 9996 2 33591 99.1817 232.4471 0014196 18.3160 341.8520 14.12485833642881 SRMSAT 1 37841U 11058D 21210.24541580 .00000318 00000-0 29657-4 0 9998 2 37841 19.9738 48.4827 0011865 33.1928 124.1639 14.10699941505563 HRBE 1 37855U 11061F 21210.42688976 .00002397 00000-0 12132-3 0 9996 2 37855 101.7118 155.5983 0165836 305.8975 52.6940 15.07947989532501 RS-40 1 38735U 12041C 21210.46271976 .00000023 00000-0 95287-4 0 9992 2 38735 82.4760 106.9062 0017726 358.4162 1.6862 12.42583320408400 ZACUBE-1 1 39417U 13066B 21210.72950388 .00000434 00000-0 60101-4 0 9991 2 39417 97.5949 192.8714 0059282 24.0156 336.3801 14.81553741415334 GOMX-1 1 39430U 13066Q 21210.75995586 .00000408 00000-0 82549-4 0 9999 2 39430 97.8133 131.4012 0150442 342.2409 17.3569 14.59646068409210 LO-74 1 39440U 13066AA 21210.40819757 .00000368 00000-0 57299-4 0 9996 2 39440 97.6787 177.6897 0081329 99.1824 261.8598 14.76275809412619 AO-73 1 39444U 13066AE 21210.48516171 .00000522 00000-0 69547-4 0 9993 2 39444 97.5853 195.0113 0058085 15.0734 345.2194 14.82469862413667 SPROUT 1 39770U 14029E 21210.76033247 .00001486 00000-0 16571-3 0 9992 2 39770 97.9211 322.0084 0010120 71.0995 289.1298 14.88535569389633 DTUSAT-2 1 40030U 14033W 21210.75766520 .00000425 00000-0 51093-4 0 9995 2 40030 97.9153 137.9958 0012873 41.0921 319.1263 14.89032500386120 EO-80 1 40032U 14033Y 21210.78926652 .00000409 00000-0 49470-4 0 9992 2 40032 97.9160 138.0347 0012861 42.0033 318.2167 14.88991133386113 HODOYOSHI-1 1 40299U 14070B 21210.83154589 .00001129 00000-0 48249-4 0 9999 2 40299 97.2848 283.2632 0012295 190.7451 278.5269 15.24819231373879 FIREBIRD FU3 1 40377U 15003B 21210.34826945 .00003365 00000-0 12314-3 0 9998 2 40377 99.1054 0.3752 0117142 32.9334 327.9124 15.22785632359161 FIREBIRD FU4 1 40378U 15003C 21210.65178065 .00003406 00000-0 12435-3 0 9996 2 40378 99.1061 0.8906 0117215 31.7280 329.0945 15.22840891359224 GRIFEX 1 40379U 15003D 21210.64998774 .00003109 00000-0 12626-3 0 9995 2 40379 99.1014 349.8399 0128515 65.0108 296.4405 15.18340083358599 NO-84 1 40654U 15025D 21209.53972764 .00032762 00000-0 20269-3 0 914 2 40654 54.9749 207.2239 0068751 171.2562 188.9335 15.73487530 13515 XW-2A 1 40903U 15049E 21210.78195208 .00004029 00000-0 85315-4 0 9992 2 40903 97.2326 265.1370 0011208 212.2728 256.8735 15.45634223329338 XW-2C 1 40906U 15049H 21210.78796472 .00001282 00000-0 68438-4 0 9990 2 40906 97.4851 212.6133 0015779 45.4937 79.0427 15.16839546323986 XW-2D 1 40907U 15049J 21210.76958578 .00001260 00000-0 66701-4 0 9993 2 40907 97.4845 212.4034 0015123 41.8565 63.3883 15.17171997324015 LILACSAT-2 1 40908U 15049K 21210.76087733 .00000465 00000-0 28785-4 0 9996 2 40908 97.5047 210.1791 0017238 56.3493 355.8770 15.14495320323633 XW-2E 1 40909U 15049L 21210.72223108 .00002069 00000-0 99951-4 0 9996 2 40909 97.4655 216.4205 0013968 30.1224 87.8067 15.19699605324353 XW-2F 1 40910U 15049M 21210.80653069 .00002108 00000-0 10320-3 0 9996 2 40910 97.4715 215.5852 0015159 29.0826 95.4690 15.19200383324155 XW-2B 1 40911U 15049N 21210.77797890 .00001266 00000-0 67197-4 0 9993 2 40911 97.4845 213.0876 0015056 43.1345 79.9617 15.17087743323907 DCBB 1 40912U 15049P 21210.73035693 .00002374 00000-0 10759-3 0 9998 2 40912 97.4440 219.8883 0014241 2.1011 108.2462 15.21762877324628 TW-1A 1 40928U 15051D 21210.86624164 .00006238 00000-0 12790-3 0 9999 2 40928 97.0743 234.7555 0010867 129.9561 354.9309 15.46341928328246 IO-86 1 40931U 15052B 21210.82349716 .00000722 00000-0 11387-4 0 9991 2 40931 6.0000 310.2367 0013875 284.0710 75.7875 14.76682689315570 ATHENOXAT-1 1 41168U 15077C 21210.37734689 .00003290 00000-0 13092-3 0 9995 2 41168 14.9875 312.7416 0010639 38.0851 10.9182 15.15879046311152 ChubuSat-2 1 41338U 16012B 21210.50831496 .00000465 00000-0 29191-4 0 9992 2 41338 31.0029 278.4785 0013577 190.7686 169.2660 15.00562304298923 ChubuSat-3 1 41339U 16012C 21210.59376562 .00000515 00000-0 32883-4 0 9998 2 41339 31.0117 275.1185 0013222 199.8040 160.2084 15.00707909298935 Horyu-4 1 41340U 16012D 21210.48821336 .00000689 00000-0 44745-4 0 9994 2 41340 31.0043 258.8396 0013701 230.4590 129.4835 15.01945481299113 e-st@r-II 1 41459U 16025D 21210.80989817 .00000940 00000-0 49965-4 0 9993 2 41459 98.1482 349.5519 0158212 279.8839 78.4573 15.08255962288801 AAUSAT4 1 41460U 16025E 21210.81764383 .00002215 00000-0 10612-3 0 9998 2 41460 98.1476 353.6553 0144818 262.8491 95.6259 15.11416744289111 LO-87 1 41557U 16033B 21210.86007750 .00002588 00000-0 92463-4 0 9995 2 41557 97.3955 304.5675 0014550 85.9579 33.3740 15.29659224288014 NuSat2 1 41558U 16033C 21210.86873566 .00002604 00000-0 87292-4 0 9995 2 41558 97.4070 308.5931 0013512 79.5825 41.9003 15.31752875288211 Lapan A3 1 41603U 16040E 21210.84742192 .00000301 00000-0 16988-4 0 9998 2 41603 97.2524 256.1632 0012330 208.0114 206.7583 15.20064964283028 Pratham 1 41783U 16059A 21210.72782963 .00000075 00000-0 23447-4 0 9990 2 41783 97.9612 259.3789 0034878 111.9435 248.5480 14.63154234258432 TY-1 1 41844U 16066D 21210.82668263 .00001627 00000-0 66131-4 0 9994 2 41844 97.3976 220.6050 0014345 355.8415 122.0388 15.25915733262361 CAS-2T 1 41847U 16066G 21210.42770982 .00000233 00000-0 44206-4 0 9996 2 41847 98.5983 269.7251 0366328 95.1142 269.1955 14.38218020247919 EO-88 1 42017U 17008BX 21210.13700008 .00003092 00000-0 11439-3 0 9990 2 42017 97.3131 276.9918 0004875 336.2296 23.8718 15.28423385247628 CAS-4B 1 42759U 17034B 21210.70040123 .00000677 00000-0 53948-4 0 9998 2 42759 43.0182 308.8133 0007469 61.6771 89.6191 15.10288753227530 CAS-4A 1 42761U 17034D 21210.62040299 .00000731 00000-0 57036-4 0 9999 2 42761 43.0186 308.2755 0007722 63.8580 74.4328 15.10376949227523 NIUSat 1 42766U 17036B 21210.56681289 .00001898 00000-0 83668-4 0 9994 2 42766 97.2471 255.0746 0015826 33.4791 326.7443 15.22887703227626 Aalto 1 1 42775U 17036L 21210.34430638 .00001532 00000-0 68258-4 0 9993 2 42775 97.2440 255.0883 0014352 33.9094 326.3058 15.22806511227578 URSA MAIOR 1 42776U 17036M 21210.40504998 .00001714 00000-0 75443-4 0 9998 2 42776 97.2454 255.6373 0014104 33.2567 326.9554 15.23083378227607 Max Valier Sat 1 42778U 17036P 21210.39998306 .00001915 00000-0 82353-4 0 9999 2 42778 97.2521 257.6318 0012712 36.1892 324.0203 15.23761063227672 Pegasus 1 42784U 17036V 21210.11634269 .00002387 00000-0 99401-4 0 9997 2 42784 97.2469 257.8544 0012381 40.0767 320.1382 15.24613862227703 NUDATSat 1 42787U 17036Y 21210.59294643 .00003741 00000-0 14515-3 0 9997 2 42787 97.2511 260.8629 0011440 32.1419 328.0513 15.26653759227763 SUCHAI 1 1 42788U 17036Z 21210.68366674 .00002843 00000-0 11503-3 0 9998 2 42788 97.2480 259.4483 0011701 35.7629 324.4391 15.25445150227928 SKCUBE 1 42789U 17036AA 21210.39230444 .00002663 00000-0 10884-3 0 9993 2 42789 97.2473 258.8579 0011673 37.4633 322.7416 15.25162751227788 VZLUSAT 1 1 42790U 17036AB 21210.39109288 .00003739 00000-0 14523-3 0 9995 2 42790 97.2505 260.6565 0010854 33.5580 326.6345 15.26623851227889 VENTA 1 1 42791U 17036AC 21210.44062851 .00002378 00000-0 97684-4 0 9994 2 42791 97.2470 258.9137 0011398 37.9920 322.2120 15.25096107227785 Robusta 1B 1 42792U 17036AD 21210.61692670 .00002793 00000-0 11319-3 0 9993 2 42792 97.2477 259.4717 0011234 36.9478 323.2533 15.25411694227858 D-SAT 1 42794U 17036AF 21210.28640685 .00000636 00000-0 59342-4 0 9990 2 42794 97.4598 227.9528 0127098 86.2280 275.3461 14.91618971223291 TechnoSat 1 42829U 17042E 21210.59135620 .00000282 00000-0 33539-4 0 9995 2 42829 97.4637 77.8782 0014508 12.9175 347.2413 14.91313491219962 QIKCOM-1 1 42983U 98067NF 21210.54105625 .00012185 00000-0 11443-3 0 9993 2 42983 51.6367 45.4110 0003331 144.2658 215.8561 15.67615165214009 AO-91 1 43017U 17073E 21210.53350880 .00000667 00000-0 56311-4 0 9990 2 43017 97.7028 112.8503 0255065 162.7737 198.2335 14.79616435199349 EcAMSat 1 43019U 98067NG 21210.46896221 .00045313 00000-0 21661-3 0 9996 2 43019 51.6385 6.6428 0001336 164.0142 196.0903 15.82311596296831 PICSAT 1 43132U 18004X 21210.48519188 .00002449 00000-0 97836-4 0 9992 2 43132 97.4073 284.6522 0010478 65.7229 294.5103 15.26051269197092 AO-92 1 43137U 18004AC 21210.44878977 .00002211 00000-0 90258-4 0 9995 2 43137 97.4046 284.0517 0010299 68.5481 291.6855 15.25422209197061 TianYi 2 1 43155U 18008A 21210.80489145 .00001219 00000-0 73322-4 0 9994 2 43155 97.3989 274.4964 0017185 176.5381 293.7632 15.12552721194472 Zhou Enlai 1 43156U 18008B 21210.81645375 .00001209 00000-0 73598-4 0 9999 2 43156 97.4038 274.3453 0014392 175.3503 294.0328 15.12167815194417 TianYi 6 1 43158U 18008D 21210.77714118 .00001618 00000-0 98822-4 0 9999 2 43158 97.3992 272.8213 0013580 174.9489 306.5557 15.11586889194339 S-Net D 1 43186U 18014G 21210.73163635 .00000127 00000-0 16030-4 0 9990 2 43186 97.6734 117.5548 0009911 304.5483 55.4803 14.97094975190626 S-Net B 1 43187U 18014H 21210.46421968 .00000109 00000-0 14461-4 0 9993 2 43187 97.6732 117.2573 0009915 305.5479 54.4818 14.97094289190588 S-Net A 1 43188U 18014J 21210.53114060 .00000112 00000-0 14727-4 0 9993 2 43188 97.6735 117.3695 0009903 305.4273 54.6024 14.97093210190591 S-Net C 1 43189U 18014K 21210.73214036 .00000146 00000-0 17676-4 0 9993 2 43189 97.6731 117.5124 0009884 304.4248 55.6039 14.97092986189174 FMN 1 1 43192U 18015A 21210.85130008 .00004386 00000-0 16093-3 0 9998 2 43192 97.4952 346.4493 0015910 93.1170 58.9605 15.28387211194068 Shaonian Xing 1 43199U 18015H 21210.82591439 .00003131 00000-0 11775-3 0 9990 2 43199 97.4732 343.4225 0017349 101.8594 53.2960 15.27775693194118 SurfSat 1 43614U 18070B 21210.32744609 .00006732 00000-0 15472-3 0 9995 2 43614 93.0355 323.4447 0013376 190.2082 169.8904 15.42598561161128 CP-7 DAVE 1 43615U 18070C 21210.28793964 .00006145 00000-0 14271-3 0 9993 2 43615 93.0360 323.3788 0013531 190.6721 169.4250 15.42289172161102 ELFIN-B 1 43616U 18070D 21210.29320652 .00010787 00000-0 22476-3 0 9998 2 43616 93.0310 323.6235 0013488 187.8011 172.3039 15.45475536161235 ELFIN-A 1 43617U 18070E 21210.56332320 .00012218 00000-0 25008-3 0 9999 2 43617 93.0360 324.6239 0013034 182.9288 177.1896 15.45996782161296 CubeBel-1 1 43666U 18083E 21210.86180876 .00002018 00000-0 98029-4 0 9998 2 43666 97.4533 238.6937 0015245 27.7608 97.1560 15.19507886152458 Changshagaoxin 1 43669U 18083H 21210.75377712 .00001746 00000-0 88437-4 0 9995 2 43669 97.4444 235.5297 0011356 26.0275 96.0214 15.18256387152302 Ten-Koh 1 43677U 18084G 21210.34668374 .00000316 00000-0 38247-4 0 9993 2 43677 97.9253 333.5036 0014612 255.3169 104.6429 14.90493106149548 PO-101 1 43678U 18084H 21210.71143881 .00000280 00000-0 33541-4 0 9998 2 43678 97.9289 336.2203 0008534 272.3146 87.7104 14.91769357149731 IRVINE 01 1 43693U 18088D 21210.33077411 .00005314 00000-0 20477-3 0 9998 2 43693 85.0361 167.1220 0014131 223.0237 136.9904 15.25988984150825 QO-100 1 43700U 18090A 21210.26651354 .00000136 00000-0 00000-0 0 9990 2 43700 0.0164 80.2190 0001934 96.2523 252.3935 1.00271675 9783 Reaktor Hello World 1 43743U 18096AA 21210.46741278 .00002812 00000-0 10209-3 0 9998 2 43743 97.3843 287.6615 0018556 124.8793 235.4194 15.28999102148558 MinXSS-2 1 43758U 18099A 21210.43831655 .00000100 00000-0 13947-4 0 9994 2 43758 97.6651 280.7580 0013974 268.1196 91.8425 14.96113815144793 AO-95 1 43770U 18099N 21210.74052101 .00000920 00000-0 88451-4 0 9995 2 43770 97.6630 279.9905 0012851 276.6350 83.3409 14.95371758144771 RANGE-B 1 43772U 18099Q 21210.15809517 .00000737 00000-0 71354-4 0 9993 2 43772 97.6720 280.4813 0012413 264.5328 95.4477 14.95685324144690 RANGE-A 1 43773U 18099R 21210.74922676 .00000576 00000-0 57425-4 0 9995 2 43773 97.6565 279.2796 0011865 262.4732 97.5141 14.95252591144765 MOVE-II 1 43780U 18099Y 21210.75138203 .00001184 00000-0 11056-3 0 9994 2 43780 97.6653 280.5849 0011638 272.8456 87.1433 14.96006124144793 SNUSat 2 1 43782U 18099AA 21210.76646425 .00000079 00000-0 12260-4 0 9998 2 43782 97.6630 280.3719 0011171 261.4095 98.5861 14.95610518144797 SnugLite 1 43784U 18099AC 21210.77123409 .00000020 00000-0 69559-5 0 9993 2 43784 97.6593 280.0923 0013520 269.9845 89.9827 14.95739609144819 ITASat 1 1 43786U 18099AE 21210.45080697 .00000152 00000-0 18825-4 0 9996 2 43786 97.6648 280.4147 0013700 270.2104 89.7548 14.95657238144766 EAGLET 1 1 43790U 18099AJ 21210.74307283 .00000905 00000-0 85652-4 0 9994 2 43790 97.6640 281.1294 0011774 272.7239 87.2634 14.96008798144535 ESEO 1 43792U 18099AL 21210.46706212 .00000454 00000-0 45775-4 0 9991 2 43792 97.6603 280.4181 0011752 270.8193 89.1682 14.95759059144544 CSIM 1 43793U 18099AM 21210.46729240 .00001105 00000-0 10185-3 0 9998 2 43793 97.6634 280.8781 0011356 264.7959 95.1967 14.96665392144552 Astrocast 0.1 1 43798U 18099AS 21210.75324503 .00000879 00000-0 82906-4 0 9996 2 43798 97.6648 281.3528 0010702 249.5803 110.4270 14.96242789144841 JO-97 1 43803U 18099AX 21210.74207729 .00001012 00000-0 95378-4 0 9999 2 43803 97.6612 280.4466 0013398 268.4662 91.5025 14.95915637144819 Suomi 100 1 43804U 18099AY 21210.41396658 .00000956 00000-0 90453-4 0 9999 2 43804 97.6610 280.0888 0013424 270.1153 89.8530 14.95885232144770 Al Farabi 2 1 43805U 18099AZ 21210.34184390 .00000870 00000-0 82358-4 0 9990 2 43805 97.6613 280.2623 0013531 268.1227 91.8442 14.96112143144771 CHOMPTT 1 43855U 18104G 21210.40949068 .00001669 00000-0 66766-4 0 9992 2 43855 85.0358 265.6931 0016735 359.9197 0.2040 15.24123307145489 ISAT 1 43879U 18111D 21210.84960868 .00000708 00000-0 66987-4 0 9993 2 43879 97.6827 117.3552 0012371 329.0731 30.9743 14.96693974139394 UWE-4 1 43880U 18111E 21210.69731820 .00001075 00000-0 98579-4 0 9992 2 43880 97.6839 117.7053 0011260 330.7318 29.3272 14.96925777139405 Sparrow 1 43881U 18111F 21210.73324764 .00000406 00000-0 40303-4 0 9992 2 43881 97.6839 117.8812 0011706 325.4891 34.5570 14.96978165139411 Lume 1 1 43908U 18111AJ 21210.28720357 .00002078 00000-0 82118-4 0 9997 2 43908 97.2282 103.6551 0021486 139.1118 221.1738 15.26389395144051 FO-98 1 43933U 19003B 21210.35529294 .00015523 00000-0 56870-3 0 9995 2 43933 97.1800 250.2147 0014152 238.3580 121.6280 15.27999563140508 FO-99 1 43937U 19003F 21210.35848425 .00002494 00000-0 99288-4 0 9993 2 43937 97.1730 251.8592 0021867 220.2484 139.7137 15.25939624140656 MYSat 1 1 44045U 18092F 21210.38667051 .00006056 00000-0 15706-3 0 9998 2 44045 51.6362 221.4853 0010467 2.4089 357.6944 15.40384989137929 AstroCast 0.2 1 44083U 19018F 21210.76130591 .00002198 00000-0 97013-4 0 9990 2 44083 97.3695 271.0476 0012918 176.2096 183.9241 15.22740535129339 AISTechSat 3 1 44103U 19018AB 21210.81284016 .00001576 00000-0 67487-4 0 9992 2 44103 97.3571 271.5066 0012760 187.1886 237.9360 15.24199692129468 AISat 1 1 44104U 19018AC 21210.46719396 .00001803 00000-0 57876-4 0 9992 2 44104 97.4244 287.8490 0055779 204.2761 155.5851 15.32200179130103 Raavana-1 1 44329U 98067QE 21209.90314954 .00105401 00000-0 47607-3 0 9999 2 44329 51.6336 70.2807 0002340 128.8252 231.2960 15.83181458120717 Uguisu 1 44330U 98067QF 21209.85646740 .00096391 00000-0 45485-3 0 9995 2 44330 51.6288 71.3540 0002544 119.4130 240.7126 15.82282714120678 NepaliSat-1 1 44331U 98067QG 21210.09160351 .00103069 00000-0 46839-3 0 9998 2 44331 51.6312 69.1805 0002371 127.9378 232.1840 15.83060590120734 Prox-1 1 44339U 19036A 21210.31272540 .00001023 00000-0 19011-3 0 9993 2 44339 24.0013 70.5579 0011184 276.9324 82.9895 14.53654803111278 Oculus-ASR 1 44348U 19036K 21210.43506479 .00023131 00000-0 30892-3 0 9991 2 44348 28.5109 214.2884 0324751 1.8040 358.3664 15.13496371115275 Armadillo 1 44352U 19036P 21210.32177235 .00036074 00000-0 44281-3 0 9995 2 44352 28.5261 190.5127 0291278 38.6159 323.4893 15.21907810115452 NO-104 1 44354U 19036R 21210.35504283 .00023394 00000-0 30439-3 0 9998 2 44354 28.5267 207.3919 0319565 10.8689 349.8618 15.15071973115335 NO-103 1 44355U 19036S 21210.17867597 .00043155 -53494-5 43460-3 0 9995 2 44355 28.5245 156.3161 0250900 94.0695 268.8619 15.33129632115834 CP9 1 44360U 19036X 21210.73435272 .00081546 -50263-5 44825-3 0 9997 2 44360 28.5024 75.0085 0156619 228.9406 129.7572 15.62507355116543 Move-IIb 1 44398U 19038N 21210.61624753 .00002469 00000-0 13947-3 0 9997 2 44398 97.5852 174.4438 0024529 160.1171 200.1022 15.13824445114141 SONATE 1 44400U 19038Q 21210.58698697 .00000681 00000-0 42571-4 0 9995 2 44400 97.5930 174.2542 0024716 161.4542 198.7591 15.12621982114109 BeeSat 9 1 44412U 19038AC 21210.45671136 .00001506 00000-0 87618-4 0 9991 2 44412 97.5907 174.4322 0022416 165.1060 195.0836 15.13403668113803 JAISAT-1 1 44419U 19038F 21210.41303862 .00001486 00000-0 85421-4 0 9999 2 44419 97.5910 174.9691 0021324 163.2198 196.9743 15.13888557114145 LightSail-2 1 44420U 19036AC 21210.20322033 .00001622 00000-0 28428-3 0 9992 2 44420 24.0049 47.8304 0019911 289.5137 70.3206 14.60079792109606 Taurus 1 1 44530U 19059C 21210.79503267 .00000549 00000-0 16622-3 0 9993 2 44530 98.5530 301.5017 0013801 21.7271 338.4504 14.46121267 99209 Duchifat 3 1 44854U 19089C 21210.67685372 .00000521 00000-0 47936-4 0 9993 2 44854 36.9636 210.9245 0006995 119.5823 240.5618 14.99552688 89449 OPS-SAT 1 44878U 19092F 21210.48293256 .00001466 00000-0 78228-4 0 9995 2 44878 97.4762 33.3671 0014517 30.2450 329.9618 15.16643192 89208 TO-108 1 44881U 19093C 21210.74866045 .00000121 00000-0 22220-4 0 9999 2 44881 97.9237 289.1157 0015751 150.8421 209.3670 14.81467069 86992 FloripaSat 1 1 44885U 19093G 21210.74516240 .00000437 00000-0 61176-4 0 9995 2 44885 97.9260 289.7597 0015192 158.5469 201.6384 14.82336777 87037 RS-44 1 44909U 19096E 21210.37648729 .00000005 00000-0 -20786-4 0 9996 2 44909 82.5200 84.9593 0217486 355.4089 4.5012 12.79710955 74183 SwampSat-2 1 45115U 19071E 21210.78083955 .00090293 00000-0 11433-2 0 9992 2 45115 51.6328 164.2331 0007805 95.0310 265.1574 15.58696109 84036 HO-107 1 45119U 19071J 21210.38325798 .00003617 00000-0 11206-3 0 9999 2 45119 51.6402 193.5353 0011880 81.3142 278.9186 15.36077434 83615 Phoenix 1 45258U 98067RB 21210.72573736 .00012757 00000-0 17643-3 0 9996 2 45258 51.6388 117.2551 0005905 58.3073 301.8494 15.57502790 81799 AztechSat-1 1 45261U 98067RE 21210.06555927 .00048720 00000-0 42947-3 0 9993 2 45261 51.6348 106.8013 0005814 82.3360 277.8296 15.68203655 81906 QARMAN 1 45263U 98067RG 21210.35042026 .00029208 00000-0 31318-3 0 9998 2 45263 51.6374 111.7478 0006097 74.1171 286.0495 15.63547610 81898 Quetzal 1 1 45598U 98067RL 21210.44961733 .00024734 00000-0 29016-3 0 9995 2 45598 51.6392 116.1900 0002402 133.1575 226.9620 15.61340296 71114 BY70-2 1 45857U 20042B 21210.78041206 .00001520 00000-0 22188-3 0 9993 2 45857 97.9840 286.0904 0012741 81.5853 278.6799 14.77150755 57790 UPMSat 2 1 46276U 20061E 21210.44913912 .00000834 00000-0 46112-4 0 9996 2 46276 97.4306 283.3816 0001452 146.3978 213.7347 15.16537027 49903 AmicalSat 1 46287U 20061R 21210.44037413 .00000920 00000-0 59580-4 0 9990 2 46287 97.4860 282.7856 0001800 347.8898 12.2288 15.10564023 49684 SALSAT 1 46495U 20068K 21210.58960466 -.00000215 00000-0 -11157-4 0 9993 2 46495 97.6931 147.8396 0015862 294.3505 65.6067 15.03488964 45662 BY70-3 1 46839U 20079N 21210.85642449 .00003534 00000-0 10973-3 0 9994 2 46839 97.2388 283.8747 0008590 62.3160 49.3149 15.33988690 40701 SPOC 1 46921U 98067RR 21210.04448559 .00012675 00000-0 19089-3 0 9998 2 46921 51.6415 128.5067 0001235 208.8759 151.2164 15.55192503 41332 Bobcat-1 1 46922U 98067RS 21210.20127823 .00018891 00000-0 25998-3 0 9997 2 46922 51.6423 125.8288 0000801 205.1054 154.9899 15.57292423 41343 Neutron-1 1 46923U 98067RT 21210.38477751 .00012605 00000-0 19070-3 0 9996 2 46923 51.6413 127.0268 0001003 233.3364 126.7535 15.55073086 41419 CAPE 3 1 47309U 21002A 21210.32649763 .00002717 00000-0 13076-3 0 9991 2 47309 60.6856 135.3892 0046437 71.0788 289.5323 15.20923864 29252 AO-109 1 47311U 21002C 21210.34423603 .00002033 00000-0 99148-4 0 9995 2 47311 60.6850 134.3655 0040506 69.6676 290.8756 15.21788764 29248 MiTEE 1 1 47314U 21002F 21210.17682610 .00004065 00000-0 17757-3 0 9996 2 47314 60.6856 133.5005 0040509 62.2695 298.2492 15.23365615 29269 ExoCube 2 1 47319U 21002L 21210.25930085 .00002443 00000-0 11758-3 0 9995 2 47319 60.6858 135.0605 0042878 71.2636 289.3096 15.21424030 29193 UVSQ-SAT 1 47438U 21006AB 21210.43863059 .00001236 00000-0 73112-4 0 9999 2 47438 97.4846 270.9072 0011511 318.8580 41.1782 15.13239128 28407 YUSAT 1 1 47439U 21006AC 21210.44090307 .00001447 00000-0 85006-4 0 9998 2 47439 97.4849 270.9090 0011353 319.1128 40.9251 15.13246750 28404 SOMP 2b 1 47445U 21006AJ 21210.72201159 .00001154 00000-0 68825-4 0 9990 2 47445 97.4819 271.0724 0011184 322.1447 37.8997 15.13075767 28448 IDEASSat 1 47458U 21006AX 21210.40804373 .00001093 00000-0 65642-4 0 9992 2 47458 97.4911 270.9516 0010287 321.4357 38.6138 15.12938072 28393 RSP-01 1 47925U 98067SB 21210.47942623 .00013002 00000-0 21598-3 0 9994 2 47925 51.6420 131.3932 0002000 164.8115 195.2935 15.52442813 21302 TAUSAT-1 1 47926U 98067SC 21210.04789276 .00016084 00000-0 25824-3 0 9990 2 47926 51.6414 133.0093 0002932 171.3958 188.7083 15.53194131 21236 Tsuru 1 47927U 98067SD 21210.16741812 .00011440 00000-0 19269-3 0 9995 2 47927 51.6422 133.0591 0002054 163.1638 196.9420 15.52188653 21257 STARS-EC 1 47928U 98067SE 21210.41430736 .00016199 00000-0 26426-3 0 9993 2 47928 51.6419 131.7009 0004226 266.1315 93.9192 15.52740379 21275 Maya-2 1 47929U 98067SF 21210.10028156 .00011384 00000-0 19161-3 0 9998 2 47929 51.6421 133.3607 0002194 160.5444 199.5630 15.52214981 21201 OPUSAT-II 1 47930U 98067SG 21210.38808249 .00018581 00000-0 29720-3 0 9997 2 47930 51.6420 131.5345 0002247 152.5877 207.5232 15.53184073 21297 GuaraniSat-1 1 47931U 98067SH 21210.48538256 .00011516 00000-0 19357-3 0 9993 2 47931 51.6422 131.4340 0002237 162.0229 198.0841 15.52239249 21307 CubeSX-Sirius-HSE 1 47951U 21022V 21210.85530742 .00000682 00000-0 51162-4 0 9998 2 47951 97.5555 112.1572 0022326 162.3175 262.5896 15.05730553 19432 CubeSX-HSE 1 47952U 21022W 21210.91827726 .00000617 00000-0 46641-4 0 9991 2 47952 97.5554 112.2247 0022180 161.4686 262.6114 15.05769543 19443 KSU-Cubesat 1 47954U 21022Y 21210.30181432 .00000344 00000-0 27808-4 0 9994 2 47954 97.5550 111.6408 0021862 163.9597 196.2327 15.05849963 19079 GRBAlpha 1 47959U 21022AD 21210.72200053 .00000661 00000-0 49702-4 0 9995 2 47959 97.5560 112.0419 0022055 162.6793 276.8143 15.05768678 18232 Orbicraft-Zorkiy 1 47960U 21022AE 21210.78139704 .00000566 00000-0 43088-4 0 9992 2 47960 97.5573 112.1322 0021689 162.1058 269.8662 15.05836040 18937 STECCO 1 47962U 21022AG 21210.76166503 .00000827 00000-0 59415-4 0 9990 2 47962 97.5528 112.2535 0016846 158.3844 278.4352 15.06892165 18242 DO-111 1 47963U 21022AH 21210.24968955 .00002390 00000-0 16114-3 0 9990 2 47963 97.5547 111.8420 0019982 156.5427 203.6717 15.07446791 18193 MO-110 1 47964U 21022AJ 21210.26050053 .00001405 00000-0 97194-4 0 9998 2 47964 97.5543 111.8226 0020266 157.8439 202.3669 15.07168564 18177 RamSat 1 48850U 98067SL 21210.51052656 .00008839 00000-0 16155-3 0 9990 2 48850 51.6419 133.0795 0003505 302.9320 57.1332 15.50197458 7039 MO-112 1 48868U 98067SP 21210.51396611 .00018112 00000-0 31954-3 0 9990 2 48868 51.6420 133.1029 0001819 308.9731 51.1096 15.50446823 5817 TUBIN 1 48900U 21059X 21210.63906076 .00000624 00000-0 39825-4 0 9994 2 48900 97.5138 338.9560 0011359 129.4040 230.8206 15.12196999 5119 /EX
